Location: Cedar Brake
(32.2526°N, 97.8459°W)
Time: 08:47:24
(UTC+00:00)

CSL-04 Rocket - Pass Details

Date: 22 April 2026
Orbit: 804 x 858 km, 98.7° (Epoch: 15 May)

Event Time Altitude Azimuth Distance (km) Brightness Sun altitude
Exits shadow 02:43:59 12° 180° (S) 2,324 5.7 -20.1°
Maximum altitude 02:49:01 60° 259° (W) 981 4.2 -21.0°
Drops below altitude 10° 02:54:29 10° 339° (NNW) 2,495 6.9 -22.0°
Sets 02:56:55 0° 343° (NNW) 3,432 7.6 -22.4°
